Time,TemperatureF,DewpointF,PressureIn,WindDirection,WindDirectionDegrees,WindSpeedMPH,WindSpeedGustMPH,Humidity,HourlyPrecipIn,Conditions,Clouds,dailyrainin,SoftwareType,DateUTC
2013-03-30 00:02:00,53.0,49.0,0.00,SSW,195,3.0,6.1,86,0.00,,,0.00,WUHU216CR1000,2013-03-30 07:02:00,
2013-03-30 00:07:00,53.0,49.0,0.00,SSW,195,3.0,6.1,86,0.00,,,0.00,WUHU216CR1000,2013-03-30 07:07:00,
2013-03-30 00:17:00,52.9,48.0,0.00,South,181,3.7,6.4,83,0.00,,,0.00,WUHU216CR1000,2013-03-30 07:17:00,
2013-03-30 00:22:00,52.9,48.0,0.00,South,181,3.7,6.4,83,0.00,,,0.00,WUHU216CR1000,2013-03-30 07:22:00,
2013-03-30 00:32:00,53.5,48.0,0.00,SSE,164,2.4,5.5,81,0.00,,,0.00,WUHU216CR1000,2013-03-30 07:32:00,
2013-03-30 00:37:00,53.5,48.0,0.00,SSE,164,2.4,5.5,81,0.00,,,0.00,WUHU216CR1000,2013-03-30 07:37:00,
2013-03-30 00:47:00,52.6,48.5,0.00,SSE,151,4.3,6.8,86,0.00,,,0.00,WUHU216CR1000,2013-03-30 07:47:00,
2013-03-30 00:52:00,52.6,48.5,0.00,SSE,151,4.3,6.8,86,0.00,,,0.00,WUHU216CR1000,2013-03-30 07:52:00,
2013-03-30 01:02:00,52.6,48.3,0.00,SSE,166,3.5,6.1,85,0.00,,,0.00,WUHU216CR1000,2013-03-30 08:02:00,
2013-03-30 01:07:00,52.6,48.3,0.00,SSE,166,3.5,6.1,85,0.00,,,0.00,WUHU216CR1000,2013-03-30 08:07:00,
2013-03-30 01:17:00,52.4,48.4,0.00,SSE,158,4.1,8.1,86,0.00,,,0.00,WUHU216CR1000,2013-03-30 08:17:00,
2013-03-30 01:22:00,52.4,48.4,0.00,SSE,158,4.1,8.1,86,0.00,,,0.00,WUHU216CR1000,2013-03-30 08:22:00,
2013-03-30 01:32:00,52.1,48.6,0.00,SSE,161,3.4,7.5,88,0.00,,,0.00,WUHU216CR1000,2013-03-30 08:32:00,
2013-03-30 01:37:00,52.1,48.6,0.00,SSE,161,3.4,7.5,88,0.00,,,0.00,WUHU216CR1000,2013-03-30 08:37:00,
2013-03-30 01:47:00,51.9,48.7,0.00,SSE,154,1.5,4.4,89,0.00,,,0.00,WUHU216CR1000,2013-03-30 08:47:00,
2013-03-30 01:52:00,51.9,48.7,0.00,SSE,154,1.5,4.4,89,0.00,,,0.00,WUHU216CR1000,2013-03-30 08:52:00,
2013-03-30 02:02:00,51.9,48.7,0.00,SSE,159,0.8,4.4,89,0.00,,,0.00,WUHU216CR1000,2013-03-30 09:02:00,
2013-03-30 02:07:00,51.9,48.7,0.00,SSE,159,0.8,4.4,89,0.00,,,0.00,WUHU216CR1000,2013-03-30 09:07:00,
2013-03-30 02:17:00,51.7,48.5,0.00,South,185,2.5,5.3,89,0.00,,,0.00,WUHU216CR1000,2013-03-30 09:17:00,
2013-03-30 02:22:00,51.7,48.5,0.00,South,185,2.5,5.3,89,0.00,,,0.00,WUHU216CR1000,2013-03-30 09:22:00,
2013-03-30 02:32:00,51.6,48.4,0.00,SSW,198,4.3,7.0,89,0.00,,,0.00,WUHU216CR1000,2013-03-30 09:32:00,
2013-03-30 02:34:00,51.6,48.4,0.00,SSW,198,4.3,7.0,89,0.00,,,0.00,WUHU216CR1000,2013-03-30 09:34:00,
2013-03-30 02:39:00,51.6,48.4,0.00,SSW,198,4.3,7.0,89,0.00,,,0.00,WUHU216CR1000,2013-03-30 09:39:00,
2013-03-30 02:47:00,51.3,48.3,0.00,SE,134,1.6,4.2,90,0.00,,,0.00,WUHU216CR1000,2013-03-30 09:47:00,
2013-03-30 02:52:00,51.3,48.3,0.00,SE,134,1.6,4.2,90,0.00,,,0.00,WUHU216CR1000,2013-03-30 09:52:00,
2013-03-30 03:02:00,51.3,48.5,0.00,NNE,28,0.6,1.8,90,0.00,,,0.00,WUHU216CR1000,2013-03-30 10:02:00,
2013-03-30 03:07:00,51.3,48.5,0.00,NNE,28,0.6,1.8,90,0.00,,,0.00,WUHU216CR1000,2013-03-30 10:07:00,
2013-03-30 03:17:00,51.0,48.5,0.00,SE,146,2.9,5.0,91,0.00,,,0.00,WUHU216CR1000,2013-03-30 10:17:00,
2013-03-30 03:22:00,51.0,48.5,0.00,SE,146,2.9,5.0,91,0.00,,,0.00,WUHU216CR1000,2013-03-30 10:22:00,
2013-03-30 03:32:00,50.9,48.6,0.00,ESE,106,1.8,4.2,92,0.00,,,0.00,WUHU216CR1000,2013-03-30 10:32:00,
2013-03-30 03:37:00,50.9,48.6,0.00,ESE,106,1.8,4.2,92,0.00,,,0.00,WUHU216CR1000,2013-03-30 10:37:00,
2013-03-30 03:47:00,50.7,48.5,0.00,SE,124,1.5,2.4,92,0.00,,,0.00,WUHU216CR1000,2013-03-30 10:47:00,
2013-03-30 03:52:00,50.7,48.5,0.00,SE,124,1.5,2.4,92,0.00,,,0.00,WUHU216CR1000,2013-03-30 10:52:00,
2013-03-30 04:02:00,50.4,48.4,0.00,SSE,149,2.5,5.3,93,0.00,,,0.00,WUHU216CR1000,2013-03-30 11:02:00,
2013-03-30 04:07:00,50.4,48.4,0.00,SSE,149,2.5,5.3,93,0.00,,,0.00,WUHU216CR1000,2013-03-30 11:07:00,
2013-03-30 04:17:00,50.2,48.3,0.00,South,171,2.2,4.2,93,0.00,,,0.00,WUHU216CR1000,2013-03-30 11:17:00,
2013-03-30 04:22:00,50.2,48.3,0.00,South,171,2.2,4.2,93,0.00,,,0.00,WUHU216CR1000,2013-03-30 11:22:00,
2013-03-30 04:32:00,50.2,48.4,0.00,SSW,193,1.9,3.3,93,0.00,,,0.00,WUHU216CR1000,2013-03-30 11:32:00,
2013-03-30 04:37:00,50.2,48.4,0.00,SSW,193,1.9,3.3,93,0.00,,,0.00,WUHU216CR1000,2013-03-30 11:37:00,
2013-03-30 04:47:00,50.1,48.3,0.00,South,178,0.9,2.4,94,0.00,,,0.00,WUHU216CR1000,2013-03-30 11:47:00,
2013-03-30 04:52:00,50.1,48.3,0.00,South,178,0.9,2.4,94,0.00,,,0.00,WUHU216CR1000,2013-03-30 11:52:00,
2013-03-30 05:02:00,50.0,48.3,0.00,SE,128,1.2,2.4,94,0.00,,,0.00,WUHU216CR1000,2013-03-30 12:02:00,
2013-03-30 05:07:00,50.0,48.3,0.00,SE,128,1.2,2.4,94,0.00,,,0.00,WUHU216CR1000,2013-03-30 12:07:00,
2013-03-30 05:17:00,49.9,48.1,0.00,East,89,1.2,2.4,94,0.00,,,0.00,WUHU216CR1000,2013-03-30 12:17:00,
2013-03-30 05:22:00,49.9,48.1,0.00,East,89,1.2,2.4,94,0.00,,,0.00,WUHU216CR1000,2013-03-30 12:22:00,
2013-03-30 05:32:00,49.9,48.2,0.00,NE,56,0.7,1.5,94,0.00,,,0.00,WUHU216CR1000,2013-03-30 12:32:00,
2013-03-30 05:37:00,49.9,48.2,0.00,NE,56,0.7,1.5,94,0.00,,,0.00,WUHU216CR1000,2013-03-30 12:37:00,
2013-03-30 05:47:00,49.9,48.2,0.00,East,85,0.4,1.3,94,0.00,,,0.00,WUHU216CR1000,2013-03-30 12:47:00,
2013-03-30 05:52:00,49.9,48.2,0.00,East,85,0.4,1.3,94,0.00,,,0.00,WUHU216CR1000,2013-03-30 12:52:00,
2013-03-30 06:02:00,49.5,47.8,0.00,SSE,151,1.1,1.8,94,0.00,,,0.00,WUHU216CR1000,2013-03-30 13:02:00,
2013-03-30 06:07:00,49.5,47.8,0.00,SSE,151,1.1,1.8,94,0.00,,,0.00,WUHU216CR1000,2013-03-30 13:07:00,
2013-03-30 06:17:00,49.2,47.5,0.00,SSW,194,1.9,2.9,94,0.00,,,0.00,WUHU216CR1000,2013-03-30 13:17:00,
2013-03-30 06:22:00,49.2,47.5,0.00,SSW,194,1.9,2.9,94,0.00,,,0.00,WUHU216CR1000,2013-03-30 13:22:00,
2013-03-30 06:32:00,48.9,47.3,0.00,South,176,1.5,3.1,94,0.00,,,0.00,WUHU216CR1000,2013-03-30 13:32:00,
2013-03-30 06:37:00,48.9,47.3,0.00,South,176,1.5,3.1,94,0.00,,,0.00,WUHU216CR1000,2013-03-30 13:37:00,
2013-03-30 06:47:00,49.4,47.9,0.00,SSW,205,4.0,8.8,94,0.00,,,0.00,WUHU216CR1000,2013-03-30 13:47:00,
2013-03-30 06:52:00,49.4,47.9,0.00,SSW,205,4.0,8.8,94,0.00,,,0.00,WUHU216CR1000,2013-03-30 13:52:00,
2013-03-30 07:02:00,49.8,48.0,0.00,SSW,209,4.3,8.8,94,0.00,,,0.00,WUHU216CR1000,2013-03-30 14:02:00,
2013-03-30 07:07:00,49.8,48.0,0.00,SSW,209,4.3,8.8,94,0.00,,,0.00,WUHU216CR1000,2013-03-30 14:07:00,
2013-03-30 07:17:00,50.2,48.5,0.00,SW,216,3.5,7.7,94,0.00,,,0.00,WUHU216CR1000,2013-03-30 14:17:00,
2013-03-30 07:22:00,50.2,48.5,0.00,SW,216,3.5,7.7,94,0.00,,,0.00,WUHU216CR1000,2013-03-30 14:22:00,
2013-03-30 07:32:00,50.5,48.8,0.00,SSW,210,3.7,8.8,94,0.00,,,0.00,WUHU216CR1000,2013-03-30 14:32:00,
2013-03-30 07:37:00,50.5,48.8,0.00,SSW,210,3.7,8.8,94,0.00,,,0.00,WUHU216CR1000,2013-03-30 14:37:00,
2013-03-30 07:47:00,50.8,49.0,0.00,SSW,211,3.5,6.4,94,0.00,,,0.00,WUHU216CR1000,2013-03-30 14:47:00,
2013-03-30 07:52:00,50.8,49.0,0.00,SSW,211,3.5,6.4,94,0.00,,,0.00,WUHU216CR1000,2013-03-30 14:52:00,
2013-03-30 08:02:00,51.2,49.4,0.00,SW,235,3.0,5.5,93,0.00,,,0.00,WUHU216CR1000,2013-03-30 15:02:00,
2013-03-30 08:07:00,51.2,49.4,0.00,SW,235,3.0,5.5,93,0.00,,,0.00,WUHU216CR1000,2013-03-30 15:07:00,
2013-03-30 08:17:00,51.4,49.5,0.00,WSW,239,3.2,5.9,93,0.00,,,0.00,WUHU216CR1000,2013-03-30 15:17:00,
2013-03-30 08:22:00,51.4,49.5,0.00,WSW,239,3.2,5.9,93,0.00,,,0.00,WUHU216CR1000,2013-03-30 15:22:00,
2013-03-30 08:32:00,51.5,49.6,0.00,SW,222,2.7,5.3,93,0.00,,,0.00,WUHU216CR1000,2013-03-30 15:32:00,
2013-03-30 08:37:00,51.5,49.6,0.00,SW,222,2.7,5.3,93,0.00,,,0.00,WUHU216CR1000,2013-03-30 15:37:00,
2013-03-30 08:47:00,51.8,49.9,0.00,SSW,197,2.3,5.5,93,0.00,,,0.00,WUHU216CR1000,2013-03-30 15:47:00,
2013-03-30 08:52:00,51.8,49.9,0.00,SSW,197,2.3,5.5,93,0.00,,,0.00,WUHU216CR1000,2013-03-30 15:52:00,
2013-03-30 09:02:00,51.9,49.9,0.00,East,87,0.8,3.3,93,0.00,,,0.00,WUHU216CR1000,2013-03-30 16:02:00,
2013-03-30 09:07:00,51.9,49.9,0.00,East,87,0.8,3.3,93,0.00,,,0.00,WUHU216CR1000,2013-03-30 16:07:00,
2013-03-30 09:17:00,52.0,50.0,0.00,ENE,72,2.3,3.7,93,0.00,,,0.00,WUHU216CR1000,2013-03-30 16:17:00,
2013-03-30 09:22:00,52.0,50.0,0.00,ENE,72,2.3,3.7,93,0.00,,,0.00,WUHU216CR1000,2013-03-30 16:22:00,
2013-03-30 09:32:00,52.2,50.1,0.00,ESE,103,1.5,3.3,92,0.00,,,0.00,WUHU216CR1000,2013-03-30 16:32:00,
2013-03-30 09:37:00,52.2,50.1,0.00,ESE,103,1.5,3.3,92,0.00,,,0.00,WUHU216CR1000,2013-03-30 16:37:00,
2013-03-30 09:47:00,52.4,50.2,0.00,SE,138,1.6,3.9,92,0.00,,,0.00,WUHU216CR1000,2013-03-30 16:47:00,
2013-03-30 09:52:00,52.4,50.2,0.00,SE,138,1.6,3.9,92,0.00,,,0.00,WUHU216CR1000,2013-03-30 16:52:00,
2013-03-30 10:02:00,52.8,50.4,0.00,SE,144,1.2,2.9,91,0.00,,,0.00,WUHU216CR1000,2013-03-30 17:02:00,
2013-03-30 10:07:00,52.8,50.4,0.00,SE,144,1.2,2.9,91,0.00,,,0.00,WUHU216CR1000,2013-03-30 17:07:00,
2013-03-30 10:17:00,53.3,50.6,0.00,SW,219,0.7,2.4,91,0.00,,,0.00,WUHU216CR1000,2013-03-30 17:17:00,
2013-03-30 10:22:00,53.3,50.6,0.00,SW,219,0.7,2.4,91,0.00,,,0.00,WUHU216CR1000,2013-03-30 17:22:00,
2013-03-30 10:32:00,54.3,51.2,0.00,WSW,255,1.3,4.2,89,0.00,,,0.00,WUHU216CR1000,2013-03-30 17:32:00,
2013-03-30 10:37:00,54.3,51.2,0.00,WSW,255,1.3,4.2,89,0.00,,,0.00,WUHU216CR1000,2013-03-30 17:37:00,
2013-03-30 10:47:00,54.9,51.2,0.00,ENE,58,0.8,2.4,87,0.00,,,0.00,WUHU216CR1000,2013-03-30 17:47:00,
2013-03-30 10:52:00,54.9,51.2,0.00,ENE,58,0.8,2.4,87,0.00,,,0.00,WUHU216CR1000,2013-03-30 17:52:00,
2013-03-30 11:02:00,56.2,51.8,0.00,West,273,1.3,3.7,85,0.00,,,0.00,WUHU216CR1000,2013-03-30 18:02:00,
2013-03-30 11:07:00,56.2,51.8,0.00,West,273,1.3,3.7,85,0.00,,,0.00,WUHU216CR1000,2013-03-30 18:07:00,
2013-03-30 11:17:00,57.1,51.7,0.00,West,277,1.5,4.6,82,0.00,,,0.00,WUHU216CR1000,2013-03-30 18:17:00,
2013-03-30 11:22:00,57.1,51.7,0.00,West,277,1.5,4.6,82,0.00,,,0.00,WUHU216CR1000,2013-03-30 18:22:00,
2013-03-30 11:32:00,57.6,51.5,0.00,WSW,243,2.5,5.9,80,0.00,,,0.00,WUHU216CR1000,2013-03-30 18:32:00,
2013-03-30 11:37:00,57.6,51.5,0.00,WSW,243,2.5,5.9,80,0.00,,,0.00,WUHU216CR1000,2013-03-30 18:37:00,
2013-03-30 11:47:00,58.5,51.7,0.00,SW,230,4.0,7.9,78,0.00,,,0.00,WUHU216CR1000,2013-03-30 18:47:00,
2013-03-30 11:52:00,58.5,51.7,0.00,SW,230,4.0,7.9,78,0.00,,,0.00,WUHU216CR1000,2013-03-30 18:52:00,
2013-03-30 12:02:00,58.0,51.6,0.00,West,260,5.1,9.6,79,0.00,,,0.00,WUHU216CR1000,2013-03-30 19:02:00,
2013-03-30 12:07:00,58.0,51.6,0.00,West,260,5.1,9.6,79,0.00,,,0.00,WUHU216CR1000,2013-03-30 19:07:00,
2013-03-30 12:17:00,58.0,51.7,0.00,WSW,258,3.2,7.9,79,0.00,,,0.00,WUHU216CR1000,2013-03-30 19:17:00,
2013-03-30 12:22:00,58.0,51.7,0.00,WSW,258,3.2,7.9,79,0.00,,,0.00,WUHU216CR1000,2013-03-30 19:22:00,
2013-03-30 12:32:00,58.0,51.6,0.00,SW,222,1.5,4.4,79,0.00,,,0.00,WUHU216CR1000,2013-03-30 19:32:00,
2013-03-30 12:37:00,58.0,51.6,0.00,SW,222,1.5,4.4,79,0.00,,,0.00,WUHU216CR1000,2013-03-30 19:37:00,
2013-03-30 12:47:00,58.4,52.4,0.00,WSW,249,1.2,5.0,80,0.00,,,0.00,WUHU216CR1000,2013-03-30 19:47:00,
2013-03-30 12:52:00,58.4,52.4,0.00,WSW,249,1.2,5.0,80,0.00,,,0.00,WUHU216CR1000,2013-03-30 19:52:00,
2013-03-30 13:02:00,58.5,52.7,0.00,West,273,1.6,3.5,81,0.00,,,0.00,WUHU216CR1000,2013-03-30 20:02:00,
2013-03-30 13:07:00,58.5,52.7,0.00,West,273,1.6,3.5,81,0.00,,,0.00,WUHU216CR1000,2013-03-30 20:07:00,
2013-03-30 13:17:00,58.8,53.3,0.00,WNW,301,2.2,4.6,82,0.00,,,0.00,WUHU216CR1000,2013-03-30 20:17:00,
2013-03-30 13:22:00,58.8,53.3,0.00,WNW,301,2.2,4.6,82,0.00,,,0.00,WUHU216CR1000,2013-03-30 20:22:00,
2013-03-30 13:32:00,59.2,52.9,0.00,West,260,1.4,3.9,80,0.00,,,0.00,WUHU216CR1000,2013-03-30 20:32:00,
2013-03-30 13:37:00,59.2,52.9,0.00,West,260,1.4,3.9,80,0.00,,,0.00,WUHU216CR1000,2013-03-30 20:37:00,
2013-03-30 13:47:00,59.8,53.5,0.00,West,281,2.3,4.4,80,0.00,,,0.00,WUHU216CR1000,2013-03-30 20:47:00,
2013-03-30 13:52:00,59.8,53.5,0.00,West,281,2.3,4.4,80,0.00,,,0.00,WUHU216CR1000,2013-03-30 20:52:00,
2013-03-30 14:02:00,60.4,53.8,0.00,North,353,2.7,6.1,79,0.00,,,0.00,WUHU216CR1000,2013-03-30 21:02:00,
2013-03-30 14:07:00,60.4,53.8,0.00,North,353,2.7,6.1,79,0.00,,,0.00,WUHU216CR1000,2013-03-30 21:07:00,
2013-03-30 14:17:00,62.3,55.1,0.00,NNE,16,2.9,7.7,77,0.00,,,0.00,WUHU216CR1000,2013-03-30 21:17:00,
2013-03-30 14:22:00,62.3,55.1,0.00,NNE,16,2.9,7.7,77,0.00,,,0.00,WUHU216CR1000,2013-03-30 21:22:00,
2013-03-30 14:32:00,63.2,54.7,0.00,NNW,342,2.7,5.3,74,0.00,,,0.00,WUHU216CR1000,2013-03-30 21:32:00,
2013-03-30 14:37:00,63.2,54.7,0.00,NNW,342,2.7,5.3,74,0.00,,,0.00,WUHU216CR1000,2013-03-30 21:37:00,
2013-03-30 14:47:00,63.4,54.5,0.00,ENE,78,2.5,4.6,73,0.00,,,0.00,WUHU216CR1000,2013-03-30 21:47:00,
2013-03-30 14:52:00,63.4,54.5,0.00,ENE,78,2.5,4.6,73,0.00,,,0.00,WUHU216CR1000,2013-03-30 21:52:00,
2013-03-30 15:02:00,63.0,53.5,0.00,ENE,70,2.1,5.0,71,0.00,,,0.00,WUHU216CR1000,2013-03-30 22:02:00,
2013-03-30 15:07:00,63.0,53.5,0.00,ENE,70,2.1,5.0,71,0.00,,,0.00,WUHU216CR1000,2013-03-30 22:07:00,
2013-03-30 15:17:00,63.7,54.6,0.00,NE,41,4.6,7.9,72,0.00,,,0.00,WUHU216CR1000,2013-03-30 22:17:00,
2013-03-30 15:22:00,63.7,54.6,0.00,NE,41,4.6,7.9,72,0.00,,,0.00,WUHU216CR1000,2013-03-30 22:22:00,
2013-03-30 15:32:00,64.1,54.0,0.00,NE,38,4.3,8.6,70,0.00,,,0.00,WUHU216CR1000,2013-03-30 22:32:00,
2013-03-30 15:37:00,64.1,54.0,0.00,NE,38,4.3,8.6,70,0.00,,,0.00,WUHU216CR1000,2013-03-30 22:37:00,
2013-03-30 15:47:00,65.5,54.0,0.00,NE,37,2.7,6.8,66,0.00,,,0.00,WUHU216CR1000,2013-03-30 22:47:00,
2013-03-30 15:52:00,65.5,54.0,0.00,NE,37,2.7,6.8,66,0.00,,,0.00,WUHU216CR1000,2013-03-30 22:52:00,
2013-03-30 16:02:00,65.7,52.6,0.00,West,270,4.1,16.2,63,0.00,,,0.00,WUHU216CR1000,2013-03-30 23:02:00,
2013-03-30 16:07:00,65.7,52.6,0.00,West,270,4.1,16.2,63,0.00,,,0.00,WUHU216CR1000,2013-03-30 23:07:00,
2013-03-30 16:17:00,64.6,51.9,0.00,WSW,245,8.8,14.9,64,0.00,,,0.00,WUHU216CR1000,2013-03-30 23:17:00,
2013-03-30 16:22:00,64.6,51.9,0.00,WSW,245,8.8,14.9,64,0.00,,,0.00,WUHU216CR1000,2013-03-30 23:22:00,
2013-03-30 16:32:00,61.9,50.9,0.00,WSW,244,8.2,14.7,67,0.00,,,0.00,WUHU216CR1000,2013-03-30 23:32:00,
2013-03-30 16:37:00,61.9,50.9,0.00,WSW,244,8.2,14.7,67,0.00,,,0.00,WUHU216CR1000,2013-03-30 23:37:00,
2013-03-30 16:47:00,60.0,50.7,0.00,WSW,243,7.4,14.9,71,0.00,,,0.00,WUHU216CR1000,2013-03-30 23:47:00,
2013-03-30 16:52:00,60.0,50.7,0.00,WSW,243,7.4,14.9,71,0.00,,,0.00,WUHU216CR1000,2013-03-30 23:52:00,
2013-03-30 17:02:00,59.1,50.3,0.00,WSW,242,8.1,16.0,73,0.00,,,0.00,WUHU216CR1000,2013-03-31 00:02:00,
2013-03-30 17:07:00,59.1,50.3,0.00,WSW,242,8.1,16.0,73,0.00,,,0.00,WUHU216CR1000,2013-03-31 00:07:00,
2013-03-30 17:12:00,59.1,50.3,0.00,WSW,242,8.1,16.0,73,0.00,,,0.00,WUHU216CR1000,2013-03-31 00:12:00,
2013-03-30 17:17:00,58.9,50.1,0.00,SW,236,5.7,11.8,73,0.00,,,0.00,WUHU216CR1000,2013-03-31 00:17:00,
2013-03-30 17:22:00,58.9,50.1,0.00,SW,236,5.7,11.8,73,0.00,,,0.00,WUHU216CR1000,2013-03-31 00:22:00,
2013-03-30 17:32:00,59.1,49.9,0.00,WSW,248,4.3,7.9,71,0.00,,,0.00,WUHU216CR1000,2013-03-31 00:32:00,
2013-03-30 17:37:00,59.1,49.9,0.00,WSW,248,4.3,7.9,71,0.00,,,0.00,WUHU216CR1000,2013-03-31 00:37:00,
2013-03-30 17:47:00,59.2,49.9,0.00,WSW,249,5.1,9.4,71,0.00,,,0.00,WUHU216CR1000,2013-03-31 00:47:00,
2013-03-30 17:52:00,59.2,49.9,0.00,WSW,249,5.1,9.4,71,0.00,,,0.00,WUHU216CR1000,2013-03-31 00:52:00,
2013-03-30 18:02:00,59.2,49.7,0.00,WSW,241,4.2,7.9,71,0.00,,,0.00,WUHU216CR1000,2013-03-31 01:02:00,
2013-03-30 18:07:00,59.2,49.7,0.00,WSW,241,4.2,7.9,71,0.00,,,0.00,WUHU216CR1000,2013-03-31 01:07:00,
2013-03-30 18:17:00,59.5,49.6,0.00,WSW,238,3.4,7.7,70,0.00,,,0.00,WUHU216CR1000,2013-03-31 01:17:00,
2013-03-30 18:22:00,59.5,49.6,0.00,WSW,238,3.4,7.7,70,0.00,,,0.00,WUHU216CR1000,2013-03-31 01:22:00,
2013-03-30 18:32:00,59.2,49.4,0.00,SW,226,4.2,11.2,70,0.00,,,0.00,WUHU216CR1000,2013-03-31 01:32:00,
2013-03-30 18:37:00,59.2,49.4,0.00,SW,226,4.2,11.2,70,0.00,,,0.00,WUHU216CR1000,2013-03-31 01:37:00,
2013-03-30 18:47:00,58.9,49.4,0.00,SSW,205,1.5,5.0,71,0.00,,,0.00,WUHU216CR1000,2013-03-31 01:47:00,
2013-03-30 18:52:00,58.9,49.4,0.00,SSW,205,1.5,5.0,71,0.00,,,0.00,WUHU216CR1000,2013-03-31 01:52:00,
2013-03-30 19:02:00,58.6,49.9,0.00,North,6,2.3,4.4,73,0.00,,,0.00,WUHU216CR1000,2013-03-31 02:02:00,
2013-03-30 19:07:00,58.6,49.9,0.00,North,6,2.3,4.4,73,0.00,,,0.00,WUHU216CR1000,2013-03-31 02:07:00,
2013-03-30 19:17:00,58.3,50.2,0.00,WSW,254,2.9,6.4,74,0.00,,,0.00,WUHU216CR1000,2013-03-31 02:17:00,
2013-03-30 19:22:00,58.3,50.2,0.00,WSW,254,2.9,6.4,74,0.00,,,0.00,WUHU216CR1000,2013-03-31 02:22:00,
2013-03-30 19:32:00,57.9,50.5,0.00,West,266,3.2,6.4,76,0.00,,,0.00,WUHU216CR1000,2013-03-31 02:32:00,
2013-03-30 19:37:00,57.9,50.5,0.00,West,266,3.2,6.4,76,0.00,,,0.00,WUHU216CR1000,2013-03-31 02:37:00,
2013-03-30 19:47:00,57.2,51.1,0.00,NW,307,0.7,3.3,80,0.00,,,0.00,WUHU216CR1000,2013-03-31 02:47:00,
2013-03-30 19:52:00,57.2,51.1,0.00,NW,307,0.7,3.3,80,0.00,,,0.00,WUHU216CR1000,2013-03-31 02:52:00,
2013-03-30 19:57:00,57.2,51.1,0.00,NW,307,0.7,3.3,80,0.00,,,0.00,WUHU216CR1000,2013-03-31 02:57:00,
2013-03-30 20:02:00,56.7,51.7,0.00,WNW,287,1.6,3.3,83,0.00,,,0.00,WUHU216CR1000,2013-03-31 03:02:00,
2013-03-30 20:07:00,56.7,51.7,0.00,WNW,287,1.6,3.3,83,0.00,,,0.00,WUHU216CR1000,2013-03-31 03:07:00,
2013-03-30 20:17:00,56.0,52.2,0.00,SSW,213,2.1,3.3,87,0.00,,,0.00,WUHU216CR1000,2013-03-31 03:17:00,
2013-03-30 20:22:00,56.0,52.2,0.00,SSW,213,2.1,3.3,87,0.00,,,0.00,WUHU216CR1000,2013-03-31 03:22:00,
2013-03-30 20:32:00,55.8,52.3,0.00,NW,321,1.8,5.0,88,0.00,,,0.00,WUHU216CR1000,2013-03-31 03:32:00,
2013-03-30 20:37:00,55.8,52.3,0.00,NW,321,1.8,5.0,88,0.00,,,0.00,WUHU216CR1000,2013-03-31 03:37:00,
2013-03-30 20:47:00,55.4,52.0,0.00,NNW,339,1.9,5.7,88,0.00,,,0.00,WUHU216CR1000,2013-03-31 03:47:00,
2013-03-30 20:52:00,55.4,52.0,0.00,NNW,339,1.9,5.7,88,0.00,,,0.00,WUHU216CR1000,2013-03-31 03:52:00,
2013-03-30 21:02:00,55.4,52.0,0.00,NNW,332,0.2,1.5,88,0.00,,,0.00,WUHU216CR1000,2013-03-31 04:02:00,
2013-03-30 21:07:00,55.4,52.0,0.00,NNW,332,0.2,1.5,88,0.00,,,0.00,WUHU216CR1000,2013-03-31 04:07:00,
2013-03-30 21:17:00,55.4,52.2,0.00,NW,315,1.7,3.7,89,0.00,,,0.00,WUHU216CR1000,2013-03-31 04:17:00,
2013-03-30 21:22:00,55.4,52.2,0.00,NW,315,1.7,3.7,89,0.00,,,0.00,WUHU216CR1000,2013-03-31 04:22:00,
2013-03-30 21:32:00,55.4,52.5,0.00,West,273,2.9,4.8,90,0.00,,,0.00,WUHU216CR1000,2013-03-31 04:32:00,
2013-03-30 21:37:00,55.4,52.5,0.00,West,273,2.9,4.8,90,0.00,,,0.00,WUHU216CR1000,2013-03-31 04:37:00,
2013-03-30 21:47:00,54.8,52.3,0.00,South,177,1.9,4.2,91,0.00,,,0.00,WUHU216CR1000,2013-03-31 04:47:00,
2013-03-30 21:52:00,54.8,52.3,0.00,South,177,1.9,4.2,91,0.00,,,0.00,WUHU216CR1000,2013-03-31 04:52:00,
2013-03-30 22:02:00,54.6,52.4,0.00,SW,234,2.4,4.8,92,0.00,,,0.00,WUHU216CR1000,2013-03-31 05:02:00,
2013-03-30 22:07:00,54.6,52.4,0.00,SW,234,2.4,4.8,92,0.00,,,0.00,WUHU216CR1000,2013-03-31 05:07:00,
2013-03-30 22:17:00,54.8,52.6,0.00,WNW,285,3.5,6.1,92,0.00,,,0.00,WUHU216CR1000,2013-03-31 05:17:00,
2013-03-30 22:22:00,54.8,52.6,0.00,WNW,285,3.5,6.1,92,0.00,,,0.00,WUHU216CR1000,2013-03-31 05:22:00,
2013-03-30 22:32:00,54.4,52.4,0.00,WSW,252,2.5,6.6,93,0.00,,,0.00,WUHU216CR1000,2013-03-31 05:32:00,
2013-03-30 22:37:00,54.4,52.4,0.00,WSW,252,2.5,6.6,93,0.00,,,0.00,WUHU216CR1000,2013-03-31 05:37:00,
2013-03-30 22:47:00,54.2,52.1,0.00,East,99,1.8,3.7,93,0.00,,,0.00,WUHU216CR1000,2013-03-31 05:47:00,
2013-03-30 22:52:00,54.2,52.1,0.00,East,99,1.8,3.7,93,0.00,,,0.00,WUHU216CR1000,2013-03-31 05:52:00,
2013-03-30 23:02:00,54.1,52.1,0.00,ESE,107,1.3,2.2,93,0.00,,,0.00,WUHU216CR1000,2013-03-31 06:02:00,
2013-03-30 23:07:00,54.1,52.1,0.00,ESE,107,1.3,2.2,93,0.00,,,0.00,WUHU216CR1000,2013-03-31 06:07:00,
2013-03-30 23:17:00,54.2,52.3,0.00,NE,47,2.4,4.6,93,0.00,,,0.00,WUHU216CR1000,2013-03-31 06:17:00,
2013-03-30 23:22:00,54.2,52.3,0.00,NE,47,2.4,4.6,93,0.00,,,0.00,WUHU216CR1000,2013-03-31 06:22:00,
2013-03-30 23:32:00,54.4,52.5,0.00,ENE,60,1.3,3.3,93,0.00,,,0.00,WUHU216CR1000,2013-03-31 06:32:00,
2013-03-30 23:37:00,54.4,52.5,0.00,ENE,60,1.3,3.3,93,0.00,,,0.00,WUHU216CR1000,2013-03-31 06:37:00,
2013-03-30 23:47:00,54.5,52.6,0.00,East,87,1.2,3.1,93,0.00,,,0.00,WUHU216CR1000,2013-03-31 06:47:00,
2013-03-30 23:52:00,54.5,52.6,0.00,East,87,1.2,3.1,93,0.00,,,0.00,WUHU216CR1000,2013-03-31 06:52:00,